Regional Weather Roundup
Issued by NWS

Home | Current Version | Previous Version | Graphics & Text | Print | Product List | Glossary Off
Versions: 1 2 3 4 5 6 7 8 9 10 11 12 13 14 15 16 17 18 19 20 21 22 23 24 25 26 27 28 29 30 31 32 33 34 35 36 37 38 39 40 41 42 43 44 45 46 47 48 49 50

000
ASUS43 KDTX 020601
RWRMI
MICHIGAN HOURLY REGIONAL WEATHER ROUNDUP
NATIONAL WEATHER SERVICE DETROIT/PONTIAC MI
200 AM EDT TUE JUN 02 2015

NOTE: "FAIR" INDICATES FEW OR NO CLOUDS BELOW 12,000 FEET WITH NO
SIGNIFICANT WEATHER AND/OR OBSTRUCTION TO VISIBILITY.

MIZ047>049-052>055-059>063-066>070-074>076-081>083-020700-
SOUTHEAST LOWER MICHIGAN

CITY           SKY/WX    TMP DP  RH WIND       PRES   REMARKS
ADRIAN         CLEAR     45  43  93 N3        30.21F
6HR MIN TEMP:  45; 6HR MAX TEMP:  61;

ALMA           CLEAR     37  37  98 CALM      30.23F
ANN ARBOR      CLEAR     41  40  96 CALM      30.21S
BAD AXE        CLEAR     36  34  92 CALM      30.23S
CARO           CLEAR     36  36  99 CALM      30.22S
DETROIT CITY   PTCLDY    49  38  65 CALM      30.22R
6HR MIN TEMP:  49; 6HR MAX TEMP:  57;

DETROIT        CLOUDY    50  42  74 CALM      30.21S
6HR MIN TEMP:  50; 6HR MAX TEMP:  60;

FLINT          CLEAR     42  38  85 CALM      30.23S
6HR MIN TEMP:  42; 6HR MAX TEMP:  62;

GROSSE ILE     PTCLDY    52  41  66 N7        30.19S
HILLSDALE      CLEAR     43  43 100 CALM      30.21S
HOWELL         PTCLDY    43  41  92 CALM      30.22S
6HR MIN TEMP:  43; 6HR MAX TEMP:  61;


CITY           SKY/WX    TMP DP  RH WIND       PRES   REMARKS
JACKSON        CLEAR     44  41  89 CALM      30.22S
6HR MIN TEMP:  44; 6HR MAX TEMP:  62;

LAMBERTVILLE   PTCLDY    48  45  87 CALM      30.20F
LANSING        CLEAR     44  38  79 CALM      30.23S
6HR MIN TEMP:  44; 6HR MAX TEMP:  59;

LAPEER         FAIR      38  37  97 CALM      30.22F
MASON          CLEAR     42  40  91 CALM      30.22S
MONROE         PTCLDY    46  45  93 CALM      30.19S
MT. CLEMENS    PTCLDY    47  40  77 N2        30.19S
6HR MIN TEMP:  46; 6HR MAX TEMP:  56;

PONTIAC        PTCLDY    47  39  74 CALM      30.21S
6HR MIN TEMP:  47; 6HR MAX TEMP:  59;

PORT HOPE        N/A     43  39  86 W3        30.21S
6HR MIN TEMP:  43; 6HR MAX TEMP:  52;

PORT HURON     PTCLDY    45  39  81 CALM      30.21S
TRI CITIES     CLEAR     45  38  76 CALM      30.24S
6HR MIN TEMP:  45; 6HR MAX TEMP:  59;

MIDLAND        FAIR      36  35  96 CALM      30.22F
TROY           PTCLDY    50  38  62 CALM      30.23S
SAGINAW HB     CLEAR     43  43 100 CALM      30.23S
$$
MIZ043>046-050>051-056>058-064>065-071>073-077>080-020700-
SOUTHWEST LOWER MICHIGAN

CITY           SKY/WX    TMP DP  RH WIND       PRES   REMARKS
BATTLE CREEK   CLEAR     49  42  77 E3        30.21F
6HR MIN TEMP:  49; 6HR MAX TEMP:  63;

BENTON HARBOR  CLEAR     46  43  89 CALM      30.18F
6HR MIN TEMP:  43; 6HR MAX TEMP:  54;

BIG RAPIDS     CLEAR     43  37  77 CALM      30.22F
6HR MIN TEMP:  43; 6HR MAX TEMP:  65;

COLDWATER      CLEAR     46  44  92 CALM      30.20F
6HR MIN TEMP:  45; 6HR MAX TEMP:  61;

FREMONT        FAIR      49  33  54 E5        30.21F
HOLLAND        CLEAR     49  39  68 E6        30.20F
6HR MIN TEMP:  47; 6HR MAX TEMP:  65;

GRAND RAPIDS   CLEAR     46  37  71 E5        30.21F
6HR MIN TEMP:  46; 6HR MAX TEMP:  62;

IONIA          FAIR      44  37  76 E5        30.22S
KALAMAZOO      CLEAR     48  43  82 CALM      30.20F
6HR MIN TEMP:  47; 6HR MAX TEMP:  65;

LUDINGTON      CLEAR     51  42  71 SE5       30.21S
MARSHALL       CLEAR     44  42  93 CALM      30.21S
MOUNT PLEASANT CLEAR     39  37  94 CALM      30.23S
6HR MIN TEMP:  39; 6HR MAX TEMP:  59;

MUSKEGON       CLEAR     50  38  63 NE3       30.21F
6HR MIN TEMP:  48; 6HR MAX TEMP:  64;

SOUTH HAVEN    CLEAR     49  42  78 E3        30.19S
$$
MIZ016>042-020700-
NORTHERN LOWER MICHIGAN

CITY           SKY/WX    TMP DP  RH WIND       PRES   REMARKS
ALPENA         CLEAR     41  37  86 CALM      30.23F
6HR MIN TEMP:  40; 6HR MAX TEMP:  61; 6HR PCP: TRACE;

BEAVER ISLAND  CLEAR     38  37  97 CALM      30.22S
6HR MIN TEMP:  36; 6HR MAX TEMP:  58;

BELLAIRE       CLEAR     41  38  91 CALM      30.23S
6HR MIN TEMP:  40; 6HR MAX TEMP:  66;

CADILLAC       CLEAR     40  37  89 CALM      30.22F
CHARLEVOIX     CLEAR     44  36  71 SE5       30.25S
6HR MIN TEMP:  44; 6HR MAX TEMP:  57;

FRANKFORT      CLEAR     45  35  69 CALM      30.21S
GAYLORD        CLEAR     40  34  79 CALM      30.23F
6HR MIN TEMP:  40; 6HR MAX TEMP:  62;

GRAYLING       CLEAR     33  31  94 CALM      30.24S
6HR MIN TEMP:  33; 6HR MAX TEMP:  63;

HARBOR SPRINGS CLEAR     40  34  81 NE5       30.23S
HOUGHTON LAKE  CLEAR     38  36  92 CALM      30.23F
6HR MIN TEMP:  38; 6HR MAX TEMP:  63;

MANISTEE       CLEAR     46  37  71 E6        30.22S
OSCODA         CLEAR     40  35  83 CALM      30.22F
PELLSTON       CLEAR     34  32  92 CALM      30.24F
6HR MIN TEMP:  34; 6HR MAX TEMP:  62;

ROGERS CITY    CLEAR     38  36  92 CALM      30.25S
TRAVERSE CITY  CLEAR     44  40  85 CALM      30.22S
6HR MIN TEMP:  44; 6HR MAX TEMP:  60;

$$
MIZ007>008-015-020700-
EASTERN UPPER MICHIGAN

CITY           SKY/WX    TMP DP  RH WIND       PRES   REMARKS
KINROSS        CLEAR     45  36  70 CALM      30.23F
6HR MIN TEMP:  45; 6HR MAX TEMP:  63;

MACKINAC ISLAN CLEAR     44  37  74 NE6       30.23F
NEWBERRY       CLEAR     43  38  82 CALM      30.22S
6HR MIN TEMP:  42; 6HR MAX TEMP:  60;

S. S. MARIE    CLEAR     43  34  70 CALM      30.22F
6HR MIN TEMP:  42; 6HR MAX TEMP:  63;

$$
MIZ004>006-011>014-085-020700-
CENTRAL UPPER MICHIGAN

CITY           SKY/WX    TMP DP  RH WIND       PRES   REMARKS
MANISTIQUE     CLEAR     37  33  85 CALM      30.21F
6HR MIN TEMP:  37; 6HR MAX TEMP:  56;

ESCANABA       CLEAR     39  36  87 CALM      30.21F
6HR MIN TEMP:  39; 6HR MAX TEMP:  61;

MENOMINEE      CLEAR     41  37  87 CALM      30.20F
6HR MIN TEMP:  39; 6HR MAX TEMP:  61;

SAWYER-GWINN   CLEAR     40  33  77 CALM      30.21F
6HR MIN TEMP:  40; 6HR MAX TEMP:  60;

$$
MIZ001>003-009>011-084-020700-
WESTERN UPPER MICHIGAN

CITY           SKY/WX    TMP DP  RH WIND       PRES   REMARKS
IRON MOUNTAIN  CLEAR     39  32  76 CALM      30.19F
6HR MIN TEMP:  38; 6HR MAX TEMP:  63;

HOUGHTON       CLEAR     43  31  62 E6        30.17F
6HR MIN TEMP:  43; 6HR MAX TEMP:  51;

COPPER HARBOR    N/A     47  30  51 SW10G21   30.16F
6HR MIN TEMP:  46; 6HR MAX TEMP:  59;

IRONWOOD       CLEAR     54  36  50 S8        30.14S
6HR MIN TEMP:  48; 6HR MAX TEMP:  64;

$$

ABBREVIATIONS USED IN REMARKS
   TC - TEMPERATURE IN CELSIUS
  WCI - WIND CHILL INDEX
   HX - HEAT INDEX
  VSB - VISIBILITY



USA.gov is the U.S. government's official web portal to all federal, state and local government web resources and services.